Location: Sortland
(68.7020°N, 15.4240°E)
Time: 00:11:04
(UTC+01:00)

N. Korean satellite - Visible Passes

Search period start: 13 November 2019 00:00
Search period end: 23 November 2019 00:00
Orbit: 456 x 506 km, 97.2° (Epoch: 12 November)

Date Brightness Start Highest point End Pass type
(mag) Time Alt. Az. Time Alt. Az. Time Alt. Az.
13 Nov 9.6 04:55:09 10° NE 04:57:56 19° E 05:00:42 10° SE visible
13 Nov 6.9 06:28:12 10° NNE 06:31:57 72° ESE 06:35:41 10° SSW visible
13 Nov 6.7 15:43:37 10° SE 15:47:14 59° ENE 15:50:56 10° NNW visible
13 Nov 8.4 17:17:27 10° SSW 17:20:52 35° W 17:24:20 10° NNW visible
13 Nov 10.4 18:54:53 10° W 18:55:22 10° WNW 18:55:49 10° WNW visible
14 Nov 10.0 04:30:11 10° NE 04:32:13 14° E 04:34:16 10° ESE visible
14 Nov 7.7 06:02:49 10° NNE 06:06:29 49° ESE 06:10:08 10° S visible
14 Nov 7.0 07:36:20 10° NNE 07:39:55 44° WNW 07:43:30 10° SW visible
14 Nov 7.6 16:51:45 10° S 16:55:20 51° WSW 16:59:01 10° NNW visible
14 Nov 10.0 18:27:30 10° WSW 18:29:35 14° W 18:31:42 10° NW visible
15 Nov 8.5 05:37:30 10° NNE 05:40:57 34° E 05:44:24 10° SSE visible
15 Nov 6.6 07:10:54 10° NNE 07:14:37 62° WNW 07:18:18 10° SW visible
15 Nov 6.9 16:26:12 10° SSE 16:29:53 76° WSW 16:33:38 10° NNW visible
15 Nov 9.5 18:01:06 10° SW 18:03:53 20° W 18:06:43 10° NW visible
16 Nov 9.2 05:12:14 10° NNE 05:15:22 24° E 05:18:28 10° SE visible
16 Nov 6.6 06:45:28 10° NNE 06:49:14 88° WNW 06:52:59 10° SSW visible
16 Nov 6.6 16:00:48 10° SSE 16:04:28 76° ENE 16:08:13 10° NNW visible
16 Nov 8.9 17:35:01 10° SSW 17:38:15 28° W 17:41:31 10° NNW visible
17 Nov 9.7 04:47:07 10° NE 04:49:43 18° E 04:52:17 10° SE visible
17 Nov 7.1 06:20:04 10° NNE 06:23:49 64° ESE 06:27:31 10° S visible
17 Nov 7.2 07:53:38 10° NNE 07:57:06 36° NW 08:00:33 10° WSW visible
17 Nov 6.8 15:35:31 10° SE 15:39:08 53° ENE 15:42:47 10° NNW visible
17 Nov 8.2 17:09:10 10° S 17:12:41 40° W 17:16:14 10° NNW visible
17 Nov 10.2 18:45:46 10° W 18:47:06 11° WNW 18:48:24 10° NW visible
18 Nov 10.1 04:22:16 10° NE 04:23:58 13° ENE 04:25:40 10° ESE visible
18 Nov 7.9 05:54:42 10° NNE 05:58:19 44° E 06:01:54 10° S visible
18 Nov 6.8 07:28:10 10° NNE 07:31:49 49° WNW 07:35:25 10° SW visible
18 Nov 7.3 16:43:30 10° S 16:47:10 58° WSW 16:50:53 10° NNW visible
18 Nov 9.8 18:18:57 10° WSW 18:21:20 16° W 18:23:44 10° NW visible
19 Nov 8.7 05:29:23 10° NNE 05:32:45 30° E 05:36:06 10° SSE visible
19 Nov 6.6 07:02:43 10° NNE 07:06:28 70° WNW 07:10:11 10° SSW visible
19 Nov 6.7 16:17:59 10° SSE 16:21:42 85° WSW 16:25:29 10° NNW visible
19 Nov 9.3 17:52:40 10° SW 17:55:39 22° W 17:58:39 10° NW visible
20 Nov 9.3 05:04:09 10° NE 05:07:07 22° E 05:10:05 10° SE visible
20 Nov 6.7 06:37:18 10° NNE 06:41:04 83° ESE 06:44:48 10° SSW visible
20 Nov 7.5 08:10:55 10° NNE 08:14:13 30° NW 08:17:31 10° WSW visible
20 Nov 6.6 15:52:37 10° SE 15:56:19 68° ENE 16:00:03 10° NNW visible
20 Nov 8.7 17:26:40 10° SSW 17:30:01 31° W 17:33:24 10° NNW visible
21 Nov 9.8 04:39:04 10° NE 04:41:25 16° E 04:43:46 10° ESE visible
21 Nov 7.4 06:11:54 10° NNE 06:15:37 57° ESE 06:19:16 10° S visible
21 Nov 7.1 07:45:26 10° NNE 07:48:58 40° NW 07:52:27 10° WSW visible
21 Nov 6.9 15:27:22 10° SE 15:30:58 48° ENE 15:34:36 10° NNW visible
21 Nov 7.9 17:00:52 10° S 17:04:27 45° W 17:08:05 10° NNW visible
21 Nov 10.1 18:37:01 10° WSW 18:38:47 13° WNW 18:40:34 10° NW visible
22 Nov 10.2 04:14:26 10° ENE 04:15:39 11° ENE 04:16:53 10° E visible
22 Nov 8.2 05:46:32 10° NNE 05:50:05 39° E 05:53:35 10° SSE visible
22 Nov 6.7 07:19:58 10° NNE 07:23:39 55° WNW 07:27:17 10° SW visible
22 Nov 7.3 15:02:15 10° ESE 15:05:41 35° NE 15:09:07 10° NNW visible
22 Nov 7.1 16:35:15 10° S 16:38:57 66° WSW 16:42:42 10° NNW visible
22 Nov 9.7 18:10:25 10° SW 18:13:02 18° W 18:15:41 10° NW visible
